Location: Beneden-Haastrecht
(52.0012°N, 4.7557°E)
Time: 02:28:51
(UTC+00:00)

ERBS - Pass Details

Date: 24 October 2020
Orbit: 408 x 422 km, 57.0° (Epoch: 24 November)

Event Time Altitude Azimuth Distance (km) Brightness Sun altitude
Rises 17:28:24 0° 258° (WSW) 2,355 8.3 -10.0°
Reaches altitude 10° 17:30:31 10° 264° (W) 1,497 6.7 -10.3°
Maximum altitude 17:33:47 50° 341° (NNW) 545 2.9 -10.8°
Enters shadow 17:36:25 15° 55° (NE) 1,254 4.1 -11.2°
